Torna al catalogo

FENGYUN 1C DEB

AttivoSSO
NORAD 37021·DEBRIS·🇨🇳 China

Lanciato May 10, 1999 da Taiyuan Satellite Launch Center

Loading…

Prossimi Passaggi (prossime 24 ore)

TLE

AggiornatoSource: Space-Track

Epoca: Sep 13, 2026, 19:11 UTC

1 37021U 99025EDD 26256.79977030  .00001151  00000-0  36560-3 0  9992
2 37021  98.3755 269.6764 0174809 153.9541  19.6156 14.33422548739934

Traccia FENGYUN 1C DEB in tempo reale con AllMySat

Download on the App Store